TimeEDT,TemperatureF,Dew PointF,Humidity,Sea Level PressureIn,VisibilityMPH,Wind Direction,Wind SpeedMPH,Gust SpeedMPH,PrecipitationIn,Events,Conditions,WindDirDegrees,DateUTC
12:54 AM,64.0,55.0,73,30.16,10.0,Calm,Calm,-,N/A,,Clear,0,2013-07-17 04:54:00
1:54 AM,61.0,55.9,83,30.16,10.0,Calm,Calm,-,N/A,,Mostly Cloudy,0,2013-07-17 05:54:00
2:54 AM,61.0,57.0,87,30.14,10.0,SSE,3.5,-,N/A,,Clear,150,2013-07-17 06:54:00
3:54 AM,63.0,59.0,87,30.13,9.0,SSE,6.9,-,N/A,,Clear,160,2013-07-17 07:54:00
4:54 AM,63.0,57.0,81,30.13,7.0,South,8.1,-,N/A,,Clear,170,2013-07-17 08:54:00
5:54 AM,64.9,55.9,73,30.13,8.0,South,10.4,17.3,N/A,,Clear,180,2013-07-17 09:54:00
6:54 AM,66.0,57.0,73,30.12,8.0,South,9.2,-,N/A,,Scattered Clouds,170,2013-07-17 10:54:00
7:54 AM,68.0,57.9,70,30.11,8.0,South,6.9,-,N/A,,Overcast,180,2013-07-17 11:54:00
8:54 AM,70.0,59.0,68,30.09,8.0,South,9.2,-,N/A,,Mostly Cloudy,170,2013-07-17 12:54:00
9:54 AM,70.0,62.1,76,30.06,8.0,South,9.2,-,0.00,Rain,Light Rain,180,2013-07-17 13:54:00
10:54 AM,70.0,64.9,84,30.07,5.0,SW,3.5,-,0.02,Rain,Light Rain,220,2013-07-17 14:54:00
11:11 AM,69.8,66.2,88,30.07,2.5,SW,6.9,-,0.04,Rain,Rain,230,2013-07-17 15:11:00
11:24 AM,69.8,66.2,88,30.07,1.2,SW,3.5,-,0.11,Rain,Heavy Rain,220,2013-07-17 15:24:00
11:32 AM,68.0,66.2,94,30.05,1.5,South,10.4,-,0.16,Rain,Rain,180,2013-07-17 15:32:00
11:37 AM,68.0,66.2,94,30.05,3.0,South,9.2,-,0.17,Rain,Light Rain,190,2013-07-17 15:37:00
11:52 AM,69.8,66.2,88,30.04,7.0,South,9.2,-,0.17,,Overcast,190,2013-07-17 15:52:00
11:54 AM,69.1,66.9,93,30.04,7.0,South,10.4,-,0.17,,Overcast,190,2013-07-17 15:54:00
12:22 PM,69.8,66.2,88,30.02,8.0,South,12.7,18.4,N/A,,Mostly Cloudy,190,2013-07-17 16:22:00
12:47 PM,71.6,66.2,83,30.00,10.0,SW,13.8,-,N/A,,Mostly Cloudy,220,2013-07-17 16:47:00
12:49 PM,73.4,66.2,78,30.00,10.0,SSW,11.5,19.6,N/A,,Mostly Cloudy,210,2013-07-17 16:49:00
12:54 PM,73.0,68.0,84,30.01,10.0,SSW,12.7,19.6,N/A,,Mostly Cloudy,210,2013-07-17 16:54:00
1:16 PM,73.4,68.0,83,29.99,10.0,SSW,12.7,19.6,N/A,,Mostly Cloudy,210,2013-07-17 17:16:00
1:27 PM,75.2,68.0,78,29.98,10.0,SW,10.4,18.4,N/A,,Mostly Cloudy,230,2013-07-17 17:27:00
1:54 PM,75.0,66.9,76,29.98,10.0,SW,12.7,20.7,N/A,,Mostly Cloudy,220,2013-07-17 17:54:00
2:54 PM,79.0,69.1,72,29.96,10.0,SSW,12.7,-,N/A,,Mostly Cloudy,200,2013-07-17 18:54:00
3:07 PM,78.8,69.8,74,29.95,10.0,SW,10.4,16.1,N/A,,Mostly Cloudy,220,2013-07-17 19:07:00
3:54 PM,81.0,71.1,72,29.91,10.0,South,10.4,-,N/A,,Clear,180,2013-07-17 19:54:00
4:54 PM,81.0,71.1,72,29.88,10.0,South,11.5,-,N/A,Thunderstorm,Clear,190,2013-07-17 20:54:00
5:38 PM,69.8,64.4,83,29.90,2.5,North,26.5,46.0,0.00,Rain-Thunderstorm,Thunderstorms and Rain,10,2013-07-17 21:38:00
5:41 PM,68.0,64.4,88,29.91,1.2,NNE,16.1,46.0,0.05,Rain-Thunderstorm,Heavy Thunderstorms and Rain,20,2013-07-17 21:41:00
5:44 PM,68.0,64.4,88,29.91,0.8,North,20.7,46.0,0.16,Rain-Thunderstorm,Heavy Thunderstorms and Rain,10,2013-07-17 21:44:00
5:52 PM,66.2,64.4,94,29.97,0.5,North,17.3,35.7,0.75,Fog-Rain-Thunderstorm,Heavy Thunderstorms and Rain,10,2013-07-17 21:52:00
5:54 PM,66.9,64.9,93,29.99,0.5,North,11.5,35.7,0.92,Fog-Rain-Thunderstorm,Heavy Thunderstorms and Rain,360,2013-07-17 21:54:00
6:12 PM,66.2,64.4,94,29.93,0.8,South,8.1,17.3,1.20,Rain-Thunderstorm,Heavy Thunderstorms and Rain,170,2013-07-17 22:12:00
6:26 PM,68.0,64.4,88,29.89,0.8,SE,12.7,-,1.60,Rain-Thunderstorm,Heavy Thunderstorms and Rain,140,2013-07-17 22:26:00
6:29 PM,68.0,64.4,88,29.89,1.2,SSE,11.5,-,1.60,Rain-Thunderstorm,Thunderstorms and Rain,150,2013-07-17 22:29:00
6:31 PM,68.0,64.4,88,29.89,2.5,South,11.5,-,1.60,Rain-Thunderstorm,Light Thunderstorms and Rain,170,2013-07-17 22:31:00
6:38 PM,68.0,64.4,88,29.90,6.0,South,6.9,-,1.60,Rain-Thunderstorm,Light Thunderstorms and Rain,180,2013-07-17 22:38:00
6:44 PM,68.0,66.2,94,29.92,2.5,Variable,3.5,-,1.66,Rain-Thunderstorm,Heavy Thunderstorms and Rain,0,2013-07-17 22:44:00
6:50 PM,66.2,66.2,100,29.93,1.2,ENE,15.0,24.2,1.79,Rain-Thunderstorm,Heavy Thunderstorms and Rain,60,2013-07-17 22:50:00
6:54 PM,69.1,64.9,87,29.93,0.8,ESE,8.1,24.2,1.92,Rain-Thunderstorm,Heavy Thunderstorms and Rain,110,2013-07-17 22:54:00
7:04 PM,68.0,66.2,94,29.94,1.5,SSE,8.1,-,0.14,Rain-Thunderstorm,Heavy Thunderstorms and Rain,150,2013-07-17 23:04:00
7:12 PM,69.8,66.2,88,29.93,0.8,Variable,4.6,-,0.41,Rain-Thunderstorm,Heavy Thunderstorms and Rain,0,2013-07-17 23:12:00
7:24 PM,66.2,66.2,100,29.93,1.0,SSE,10.4,-,0.68,Rain-Thunderstorm,Light Thunderstorms and Rain,150,2013-07-17 23:24:00
7:27 PM,68.0,66.2,94,29.93,3.0,South,9.2,-,0.69,Rain-Thunderstorm,Light Thunderstorms and Rain,170,2013-07-17 23:27:00
7:36 PM,68.0,66.2,94,29.92,10.0,South,8.1,-,0.69,Rain-Thunderstorm,Light Rain,180,2013-07-17 23:36:00
7:54 PM,68.0,66.0,93,29.91,10.0,SSE,6.9,-,0.69,Rain,Light Rain,160,2013-07-17 23:54:00
8:54 PM,68.0,66.9,96,29.93,9.0,SSW,10.4,-,0.03,Rain,Light Rain,210,2013-07-18 00:54:00
9:54 PM,68.0,66.9,96,29.92,7.0,SW,3.5,-,0.03,Rain,Light Rain,220,2013-07-18 01:54:00
10:54 PM,68.0,66.9,96,29.90,10.0,SSW,4.6,-,0.02,,Overcast,200,2013-07-18 02:54:00
11:54 PM,68.0,66.9,96,29.91,7.0,WSW,5.8,-,0.01,,Overcast,250,2013-07-18 03:54:00